Find Starlink 11566

NORAD ID: 62914 Int'l Des: 2025-027 Owner: SPXS Country: US Constellation: starlink operational
又名: STARLINK-11566 [DTC] celestrak
LEOCIRCULAR

当前视图

正在加载3D地球...

About Starlink 11566

Starlink 11566 (NORAD 62914) is a starlink constellation satellite (v2 mini d2c) launched Feb 8, 2025 by SPXS of US. It operates in LEO, CIRCULAR orbit with a mass of 960.00 kg.

即将过境

Passes for default location (London). Set your location on the main map for personalized predictions.

高度历史

Loading altitude history...

两行轨道根数

1 62914U 25027H 26263.98179484 .00128710 00000-0 98980-3 0 9993
2 62914 42.9961 250.7589 0001765 172.0817 188.0079 15.70870795 93909
Epoch: Sep 20, 2026 • Age: 4 hours

当前状态

高度 356.5 km
远地点 / 近地点 N/A
速度 7.70 km/s
星下点 32.74°N, 20.79°W
发射日期 Feb 8, 2025
运行时间 1.6 years
类型 internet

技术详情

分类 Payload
质量 960.00 kg
干质量 910.00 kg
长度 0.30 m
跨度 29.00 m
形状 ? Box + pan
制造商 SPXS
平台类型 Starlink V2MD
阶段状态 In Orbit
所有者/国家 SPXS/US

Most Searched